sat.trackr.live / text

‹ back to catalog

STARLINK-30295

NORAD 57683 · 2023-124W

PAYLOAD ACTIVE UNKNOWN

§ Identity

Operator
Country
US
Launch date
2023-08-22
Launch site
AFWTR
Launch vehicle
Mass (kg)
RCS (m²)

Purposes: comms

External: N2YO · Heavens-Above · Gunter

§ Orbital elements

Epoch: 2026-09-20T12:56:40.843968Z

Period
93.85 min
Inclination
53.1627°
Eccentricity
0.0001437
Mean motion
15.34403553 rev/d
Perigee alt
461.7 km
Apogee alt
463.7 km
Semi-major
6,840.8 km
B*
6.1551e-5
RAAN
19.3495°
Arg perigee
107.0647°
Mean anomaly
253.0513°
Rev number
17,343

§ Raw data

STARLINK-302951 57683U 23124W   26263.53936162  .00001704  00000+0  61551-4 0  99982 57683  53.1627  19.3495 0001437 107.0647 253.0513 15.34403553173436

JSON: /api/v1/satellites/57683 · /tle

For live sub-satellite position, see the globe view (requires WebGL).

§ Visibility from observer

Set your observer location to see the next 7 days of passes ≥ 10°. The values pass through the URL so the page stays shareable.

No JS? Fill the form by hand. The geolocation button needs JavaScript.